This demonstration page uses our WeatherBlox Daily Observations layout. Learn more.

Left ArrowRight Arrow

53.62937, 11.41316

Hourly Observations for July 22, 2016

Temp ( °F °C ) Dew Point ( °F °C ) Humidity (%) Winds ( mph kmh ) Pressure ( in mb ) Visibility ( mi km ) Precip ( " mm )
6:20 am 06:20 Mostly Sunny 66 19 52 11 60 60 E 9 15 30.00 1016 7 11 N/A
6:50 am 06:50 Mostly Sunny 66 19 52 11 60 60 E 8 13 30.00 1016 7 11 N/A
7:20 am 07:20 Mostly Sunny 68 20 52 11 56 56 E 9 15 30.00 1016 7 11 N/A
7:50 am 07:50 Mostly Sunny 68 20 50 10 53 53 E 9 15 30.03 1017 7 11 N/A
8:20 am 08:20 Mostly Sunny 70 21 50 10 50 50 E 10 17 30.03 1017 7 11 N/A
8:50 am 08:50 Mostly Sunny 72 22 50 10 47 47 E 10 17 30.03 1017 7 11 N/A
9:20 am 09:20 Mostly Sunny 73 23 50 10 44 44 E 9 15 30.03 1017 7 11 N/A
9:50 am 09:50 Mostly Sunny 75 24 50 10 41 41 E 8 13 30.03 1017 7 11 N/A
10:20 am 10:20 Mostly Sunny 75 24 48 9 39 39 E 7 11 30.03 1017 7 11 N/A
10:50 am 10:50 Mostly Sunny 79 26 48 9 34 34 ESE 10 17 30.03 1017 7 11 N/A
11:20 am 11:20 Mostly Sunny 81 27 48 9 32 32 ESE 12 19 30.03 1017 7 11 N/A
11:50 am 11:50 Mostly Sunny 82 28 46 8 28 28 ESE 9 15 30.03 1017 7 11 N/A
12:20 pm 12:20 Mostly Sunny 82 28 46 8 28 28 E 13 20 30.03 1017 7 11 N/A
12:50 pm 12:50 Mostly Sunny 82 28 48 9 30 30 E 9 15 30.03 1017 7 11 N/A
1:20 pm 13:20 Mostly Sunny 84 29 48 9 29 29 ENE 12 19 30.03 1017 7 11 N/A
1:50 pm 13:50 Mostly Sunny 84 29 48 9 29 29 ENE 10 17 30.03 1017 7 11 N/A
2:20 pm 14:20 Mostly Sunny 84 29 48 9 29 29 E 8 13 30.03 1017 7 11 N/A
2:50 pm 14:50 Mostly Sunny 84 29 46 8 27 27 ENE 9 15 30.03 1017 7 11 N/A
3:20 pm 15:20 Mostly Sunny 84 29 45 7 25 25 ENE 12 19 30.03 1017 7 11 N/A
3:50 pm 15:50 Mostly Sunny 84 29 45 7 25 25 NE 8 13 30.03 1017 7 11 N/A
4:20 pm 16:20 Mostly Sunny 82 28 45 7 26 26 ENE 9 15 30.03 1017 7 11 N/A
4:50 pm 16:50 Mostly Sunny 82 28 45 7 26 26 ENE 9 15 30.03 1017 7 11 N/A
5:20 pm 17:20 Mostly Sunny 82 28 46 8 28 28 ENE 10 17 30.03 1017 7 11 N/A
5:50 pm 17:50 Mostly Sunny 82 28 46 8 28 28 ENE 12 19 30.03 1017 7 11 N/A
6:20 pm 18:20 Mostly Sunny 81 27 46 8 30 30 E 8 13 30.03 1017 7 11 N/A
6:50 pm 18:50 Mostly Sunny 81 27 48 9 32 32 E 7 11 30.03 1017 7 11 N/A

Powered by AerisWeather